Goodland, KS

3:18 PM MDT on May 26, 2017 (GMT -0600)
Renner-Goodland Municipal

Weather History for KGLD - May, 2014

Change the Weather History Date:

Sunday, May 4, 2014

  Actual Average Record
Temperature  
Mean Temperature 65 °F 55 °F  
Max Temperature 81 °F 69 °F 91 °F (1965)
Min Temperature 48 °F 41 °F 23 °F (1907)
Degree Days  
Heating Degree Days 0 10  
Month to date heating degree days 35 42  
Since 1 July heating degree days 5784 5697  
Cooling Degree Days 0 1  
Month to date cooling degree days 0 2  
Year to date cooling degree days 5 6  
Growing Degree Days 16 (Base 50)    
Moisture  
Dew Point 41 °F    
Average Humidity 55    
Maximum Humidity 80    
Minimum Humidity 30    
Precipitation  
Precipitation 0.00 in 0.08 in 1.49 in (2001)
Month to date precipitation 0.00 0.30  
Year to date precipitation 1.79 3.83  
Snow  
Snow 0.00 in 0.10 in - ()
Month to date snowfall 0.0 0.2  
Since 1 July snowfall 29.1 35.2  
Snow Depth 0.00 in    
Sea Level Pressure  
Sea Level Pressure 29.71 in    
Wind  
Wind Speed 10 mph (East)    
Max Wind Speed 18 mph    
Max Gust Speed 22 mph    
Visibility 10 miles    
Events      
T = Trace of Precipitation, MM = Missing Value Source: NWS Daily Summary

Daily Weather History Graph

Daily Weather History Graph

Search for Another Location

Airport or City:

Trip Planner

Search our weather history database for the weather conditions in past years. The results will help you decide how hot, cold, wet, or windy it might be!

Date:

Astronomy

May. 04, 2014 Rise Set
Actual Time 5:44 AM MDT 7:43 PM MDT
Civil Twilight 5:15 AM MDT 8:12 PM MDT
Nautical Twilight 4:39 AM MDT 8:48 PM MDT
Astronomical Twilight 4:01 AM MDT 9:27 PM MDT
Moon 10:10 AM MDT (5/4) No Moon Set
Length of Visible Light 14h 57m
Length of Day
13h 58m
Waxing Crescent, 28% of the Moon is Illuminated
May 4
Waxing Crescent
May 6
First Quarter
May 14
Full
May 21
Last Quarter
May 28
New

Hourly Weather History & Observations

Time (MDT) Temp. Dew Point Humidity Pressure Visibility Wind Dir Wind Speed Gust Speed Precip Events Conditions
12:53 AM 61.0 °F 36.0 °F 39% 29.73 in 10.0 mi South 15.0 mph - N/A   Clear
1:53 AM 61.0 °F 35.1 °F 38% 29.70 in 10.0 mi SSW 13.8 mph - N/A   Clear
2:53 AM 57.9 °F 34.0 °F 41% 29.69 in 10.0 mi SW 11.5 mph - N/A   Clear
3:53 AM 52.0 °F 33.1 °F 49% 29.70 in 10.0 mi WSW 10.4 mph - N/A   Clear
4:53 AM 57.9 °F 27.0 °F 31% 29.69 in 10.0 mi SW 11.5 mph - N/A   Clear
5:53 AM 52.0 °F 28.9 °F 41% 29.70 in 10.0 mi WSW 10.4 mph - N/A   Clear
6:53 AM 57.0 °F 30.0 °F 36% 29.72 in 10.0 mi North 10.4 mph 18.4 mph N/A   Clear
7:53 AM 57.0 °F 41.0 °F 55% 29.76 in 10.0 mi NE 6.9 mph - N/A   Clear
8:53 AM 61.0 °F 43.0 °F 52% 29.77 in 10.0 mi NNE 8.1 mph - N/A   Clear
9:53 AM 68.0 °F 39.9 °F 36% 29.75 in 10.0 mi NNE 9.2 mph - N/A   Clear
10:53 AM 72.0 °F 41.0 °F 33% 29.76 in 10.0 mi North 5.8 mph - N/A   Clear
11:53 AM 73.9 °F 43.0 °F 33% 29.74 in 10.0 mi NE 8.1 mph - N/A   Clear
12:53 PM 75.9 °F 43.0 °F 31% 29.72 in 10.0 mi East 8.1 mph - N/A   Clear
1:53 PM 79.0 °F 44.1 °F 29% 29.70 in 10.0 mi East 10.4 mph - N/A   Clear
2:53 PM 78.1 °F 44.1 °F 30% 29.68 in 10.0 mi East 13.8 mph - N/A   Clear
3:53 PM 79.0 °F 46.0 °F 31% 29.69 in 10.0 mi ENE 12.7 mph - N/A   Clear
4:53 PM 75.0 °F 46.0 °F 36% 29.68 in 10.0 mi East 15.0 mph - N/A   Clear
5:53 PM 73.0 °F 46.0 °F 38% 29.69 in 10.0 mi East 13.8 mph - N/A   Clear
6:53 PM 70.0 °F 46.9 °F 44% 29.68 in 10.0 mi ESE 12.7 mph - N/A   Clear
7:53 PM 60.1 °F 46.9 °F 62% 29.70 in 10.0 mi East 8.1 mph - N/A   Clear
8:53 PM 57.0 °F 46.0 °F 67% 29.70 in 10.0 mi ESE 10.4 mph - N/A   Clear
9:53 PM 54.0 °F 46.0 °F 75% 29.70 in 10.0 mi ESE 11.5 mph - N/A   Clear
10:53 PM 51.1 °F 45.0 °F 80% 29.69 in 10.0 mi SE 6.9 mph - N/A   Clear
11:53 PM 50.0 °F 44.1 °F 80% 29.71 in 10.0 mi South 9.2 mph - N/A   Clear